Quillayute, WA

7:35 PM PST on December 12, 2017 (GMT -0800)
Quillayute

Weather History for KUIL - May, 2014

Change the Weather History Date:

Friday, May 23, 2014

  Actual Average Record
Temperature  
Mean Temperature 56 °F 52 °F  
Max Temperature 60 °F 61 °F 81 °F (1983)
Min Temperature 52 °F 44 °F 33 °F (1987)
Degree Days  
Heating Degree Days 9 13  
Month to date heating degree days 224 330  
Since 1 July heating degree days 4506 5372  
Cooling Degree Days 0 0  
Month to date cooling degree days 2 0  
Year to date cooling degree days 4 0  
Growing Degree Days 6 (Base 50)    
Moisture  
Dew Point 54 °F    
Average Humidity 90    
Maximum Humidity 100    
Minimum Humidity 80    
Precipitation  
Precipitation 0.27 in 0.15 in 3.52 in (1973)
Month to date precipitation 3.48 3.90  
Year to date precipitation 51.76 47.54  
Sea Level Pressure  
Sea Level Pressure 30.06 in    
Wind  
Wind Speed 5 mph (WSW)    
Max Wind Speed 13 mph    
Max Gust Speed 19 mph    
Visibility 4 miles    
Events Fog , Rain    
T = Trace of Precipitation, MM = Missing Value Source: NWS Daily Summary

Daily Weather History Graph

Daily Weather History Graph

Search for Another Location

Airport or City:

Trip Planner

Search our weather history database for the weather conditions in past years. The results will help you decide how hot, cold, wet, or windy it might be!

Date:

Astronomy

May. 23, 2014 Rise Set
Actual Time 5:30 AM PDT 9:00 PM PDT
Civil Twilight 4:52 AM PDT 9:38 PM PDT
Nautical Twilight 4:01 AM PDT 10:30 PM PDT
Astronomical Twilight 2:53 AM PDT 11:39 PM PDT
Moon 2:52 AM PDT (5/23) 3:37 PM PDT (5/23)
Length of Visible Light 16h 46m
Length of Day
15h 29m
Waning Crescent, 26% of the Moon is Illuminated
May 23
Waning Crescent
May 28
New
Jun 5
First Quarter
Jun 12
Full
Jun 19
Last Quarter

Hourly Weather History & Observations

Time (PDT) Temp. Dew Point Humidity Pressure Visibility Wind Dir Wind Speed Gust Speed Precip Events Conditions
12:38 AM 55.0 °F 55.0 °F 100% 30.01 in 1.8 mi Calm Calm - 0.00 in   Overcast
12:53 AM 55.0 °F 55.0 °F 100% 30.02 in 0.8 mi Calm Calm - 0.00 in   Mist
1:15 AM 54.0 °F 54.0 °F 100% 30.01 in 0.2 mi Calm Calm - N/A Fog Fog
1:43 AM 54.0 °F 54.0 °F 100% 30.00 in 0.5 mi Calm Calm - N/A Fog Fog
1:53 AM 54.0 °F 54.0 °F 100% 30.00 in 0.8 mi Calm Calm - N/A   Mist
2:01 AM 54.0 °F 54.0 °F 100% 30.00 in 1.0 mi Calm Calm - N/A   Mist
2:24 AM 54.0 °F 54.0 °F 100% 30.00 in 2.0 mi Calm Calm - N/A   Overcast
2:33 AM 54.0 °F 54.0 °F 100% 29.99 in 6.0 mi Calm Calm - N/A   Overcast
2:40 AM 54.0 °F 54.0 °F 100% 30.00 in 6.0 mi Calm Calm - N/A   Overcast
2:53 AM 54.0 °F 54.0 °F 100% 30.00 in 6.0 mi SW 3.5 mph - 0.00 in Rain Light Rain
3:05 AM 54.0 °F 54.0 °F 100% 30.00 in 6.0 mi West 4.6 mph - 0.00 in Rain Light Rain
3:53 AM 54.0 °F 54.0 °F 100% 30.00 in 5.0 mi East 3.5 mph - 0.00 in Rain Light Rain
4:10 AM 54.0 °F 54.0 °F 100% 30.00 in 6.0 mi Calm Calm - 0.00 in   Overcast
4:53 AM 54.0 °F 54.0 °F 100% 30.00 in 5.0 mi Calm Calm - 0.01 in Rain Light Rain
5:19 AM 54.0 °F 54.0 °F 100% 29.99 in 1.8 mi ESE 3.5 mph - 0.01 in Rain Light Rain
5:29 AM 54.0 °F 54.0 °F 100% 29.99 in 3.0 mi Calm Calm - 0.02 in Rain Light Rain
5:53 AM 54.0 °F 53.1 °F 97% 29.99 in 7.0 mi SSE 5.8 mph - 0.03 in Rain Light Rain
6:53 AM 54.0 °F 53.1 °F 97% 29.99 in 3.0 mi SE 6.9 mph - 0.02 in Rain Light Rain
7:13 AM 54.0 °F 52.0 °F 93% 29.98 in 6.0 mi SE 6.9 mph - 0.01 in Rain Light Rain
7:38 AM 53.1 °F 51.1 °F 93% 30.00 in 1.8 mi Variable 6.9 mph - 0.02 in Rain Light Rain
7:53 AM 51.8 °F 51.8 °F 100% 30.00 in 1.2 mi Variable 4.6 mph - N/A Rain Light Rain
8:05 AM 52.0 °F 51.1 °F 97% 30.00 in 0.8 mi Variable 4.6 mph - 0.00 in Rain Light Rain
8:15 AM 52.0 °F 52.0 °F 100% 30.00 in 0.8 mi South 5.8 mph - 0.02 in Rain Light Rain
8:22 AM 52.0 °F 52.0 °F 100% 30.00 in 1.2 mi Calm Calm - 0.03 in Rain Light Rain
8:29 AM 53.1 °F 52.0 °F 96% 30.00 in 1.0 mi SSE 4.6 mph - 0.03 in Rain Light Rain
8:50 AM 53.6 °F 53.6 °F 100% 30.01 in 0.8 mi Variable 5.8 mph - 0.06 in Rain Light Rain
8:53 AM 54.0 °F 53.1 °F 97% 30.01 in 1.0 mi Variable 3.5 mph - 0.06 in Rain Light Rain
9:02 AM 54.0 °F 54.0 °F 100% 30.01 in 1.0 mi SSE 4.6 mph - 0.01 in Rain Light Rain
9:38 AM 55.9 °F 55.9 °F 100% 30.01 in 0.8 mi SSE 6.9 mph - 0.04 in Rain Light Rain
9:42 AM 55.9 °F 55.0 °F 97% 30.01 in 1.0 mi Variable 6.9 mph - 0.05 in Rain Light Rain
9:53 AM 55.9 °F 55.0 °F 97% 30.02 in 0.8 mi South 6.9 mph - 0.06 in Rain Light Rain
10:01 AM 55.9 °F 55.9 °F 100% 30.02 in 1.2 mi South 9.2 mph - 0.01 in Rain Light Rain
10:12 AM 55.9 °F 55.9 °F 100% 30.02 in 1.8 mi South 11.5 mph 19.6 mph 0.01 in Rain Light Rain
10:22 AM 55.9 °F 55.9 °F 100% 30.02 in 2.0 mi South 6.9 mph - 0.01 in Rain Light Rain
10:32 AM 55.9 °F 55.9 °F 100% 30.03 in 1.8 mi South 6.9 mph - 0.02 in Rain Light Rain
10:40 AM 57.0 °F 55.9 °F 96% 30.03 in 2.0 mi South 6.9 mph 17.3 mph 0.02 in Rain Light Rain
10:49 AM 57.2 °F 55.4 °F 94% 30.03 in 1.5 mi Variable 5.8 mph 17.3 mph 0.02 in Rain Light Rain
10:53 AM 57.0 °F 55.9 °F 96% 30.04 in 1.2 mi Variable 5.8 mph - 0.02 in Rain Light Rain
11:06 AM 57.0 °F 57.0 °F 100% 30.04 in 1.8 mi SSW 8.1 mph - 0.02 in Rain Light Rain
11:11 AM 57.0 °F 57.0 °F 100% 30.04 in 1.2 mi SSW 9.2 mph - 0.02 in Rain Light Rain
11:43 AM 57.0 °F 57.0 °F 100% 30.05 in 1.5 mi West 8.1 mph - 0.03 in Rain Light Rain
11:49 AM 57.2 °F 57.2 °F 100% 30.05 in 3.0 mi WNW 6.9 mph - 0.03 in Rain Light Rain
11:53 AM 57.0 °F 57.0 °F 100% 30.06 in 4.0 mi West 9.2 mph - 0.03 in Rain Light Rain
12:15 PM 55.9 °F 55.9 °F 100% 30.06 in 1.8 mi WNW 9.2 mph - 0.00 in Rain Light Rain
12:29 PM 57.0 °F 55.9 °F 96% 30.07 in 3.0 mi West 8.1 mph - 0.00 in Rain Light Rain
12:40 PM 57.9 °F 55.9 °F 93% 30.07 in 6.0 mi West 6.9 mph - 0.00 in   Overcast
12:53 PM 57.0 °F 55.9 °F 96% 30.07 in 5.0 mi WNW 8.1 mph - 0.00 in Rain Light Rain
1:51 PM 59.0 °F 55.4 °F 88% 30.08 in 7.0 mi West 5.8 mph - 0.00 in   Overcast
1:53 PM 59.0 °F 55.0 °F 87% 30.08 in 7.0 mi West 4.6 mph - 0.00 in   Overcast
2:18 PM 59.0 °F 55.0 °F 87% 30.09 in 7.0 mi West 10.4 mph - N/A   Overcast
2:53 PM 59.0 °F 53.1 °F 81% 30.10 in 7.0 mi WSW 11.5 mph - N/A   Overcast
3:53 PM 57.9 °F 54.0 °F 87% 30.11 in 7.0 mi West 11.5 mph - N/A   Overcast
4:40 PM 57.0 °F 55.0 °F 93% 30.11 in 2.5 mi WSW 8.1 mph - N/A   Overcast
4:46 PM 55.9 °F 55.0 °F 97% 30.11 in 1.5 mi West 6.9 mph - 0.00 in Rain Light Rain
4:53 PM 57.0 °F 55.9 °F 96% 30.11 in 2.0 mi WSW 8.1 mph - 0.00 in   Overcast
5:04 PM 55.9 °F 54.0 °F 93% 30.11 in 3.0 mi West 9.2 mph - N/A   Overcast
5:10 PM 55.9 °F 54.0 °F 93% 30.11 in 1.8 mi West 9.2 mph - 0.00 in Rain Light Rain
5:20 PM 55.0 °F 54.0 °F 96% 30.11 in 1.0 mi West 10.4 mph - 0.00 in Rain Light Rain
5:32 PM 55.0 °F 54.0 °F 96% 30.11 in 2.0 mi West 8.1 mph - 0.00 in Rain Light Rain
5:41 PM 55.9 °F 55.0 °F 97% 30.11 in 7.0 mi WSW 10.4 mph - 0.00 in Rain Light Rain
5:53 PM 55.0 °F 53.1 °F 93% 30.12 in 5.0 mi WNW 8.1 mph - 0.00 in Rain Light Rain
6:26 PM 55.0 °F 53.1 °F 93% 30.11 in 7.0 mi West 8.1 mph - 0.00 in   Overcast
6:29 PM 55.0 °F 53.1 °F 93% 30.11 in 7.0 mi WNW 6.9 mph - 0.00 in   Overcast
6:37 PM 55.0 °F 53.1 °F 93% 30.11 in 7.0 mi WNW 4.6 mph - 0.00 in   Overcast
6:53 PM 55.0 °F 52.0 °F 89% 30.11 in 7.0 mi WNW 3.5 mph - 0.00 in Rain Light Rain
7:53 PM 54.0 °F 51.1 °F 90% 30.13 in 7.0 mi Variable 4.6 mph - 0.00 in   Overcast
8:39 PM 54.0 °F 51.1 °F 90% 30.14 in 6.0 mi Calm Calm - N/A   Overcast
8:53 PM 54.0 °F 51.1 °F 90% 30.15 in 6.0 mi West 3.5 mph - N/A   Overcast
9:53 PM 53.6 °F 51.8 °F 94% 30.15 in 6.0 mi Calm Calm - N/A   Overcast
10:15 PM 53.1 °F 52.0 °F 96% 30.16 in 7.0 mi West 3.5 mph - 0.00 in Rain Light Rain
10:24 PM 53.1 °F 52.0 °F 96% 30.16 in 3.0 mi West 4.6 mph - 0.00 in Rain Light Rain
10:53 PM 53.1 °F 52.0 °F 96% 30.17 in 6.0 mi NE 3.5 mph - 0.01 in   Overcast
11:01 PM 53.1 °F 52.0 °F 96% 30.17 in 7.0 mi Calm Calm - N/A   Overcast
11:08 PM 53.1 °F 52.0 °F 96% 30.17 in 7.0 mi Calm Calm - N/A   Overcast
11:53 PM 52.0 °F 52.0 °F 100% 30.17 in 6.0 mi Calm Calm - N/A   Overcast